FALCON 9 DEB (45792 NORAD) Tracking and Keplerian Element Data

This shows tracking and keplerian element data for the satellite.

Feedback or suggestion? Click here.




ElementValue
Catalog45792
NameFALCON 9 DEB
Epoch Orbit335
Epoch Day185.33080406
Epoch Year2020
RAAN196.3783
Inclination52.9915
Eccentricity0.0087745
Argument of Perigee120.1334
Mean Anonmoly240.8428
Mean Motion16.03308982
Decay Rate0.00273496
L11 45792U 20038BQ 20185.33080406 .00273496 11430-4 26228-3 0 9997
L22 45792 52.9915 196.3783 0087745 120.1334 240.8428 16.03308982 3351

Live tracking and technical data element details for FALCON 9 DEB (NORAD 45792). FALCON 9 DEB can be tracked NOW for your location showing map with azimuth and elevation plus other details from your city location.

Track the satellite on the map from your city or location and see movement details for azimuth, elevation, latitude, longitude, range, height, and movement on the map or in text.







IsCatalogInMostPopularTable: catalog: 45792, numindb: 4
Update: records affected: 1



GetName: 45792 FALCON 9 DEB

Hit Count: updated at: Sun, 05 Jul 2020 17:17:07 GMT